This is the latest recevied weather packets stored in our database for station/object AD7ZD. If no packets are shown the sender has not sent any weather packets the latest 10 day(s).
| Time | Temp. | Humidity | Pressure | Rain* | Wind** | Luminosity | Snow |
|---|---|---|---|---|---|---|---|
| 1778027167 | 18.89° C | 42% | 1009.7 hPa | 0 mm | - | 360 W/m² | - |
| 1778026863 | 18.33° C | 42% | 1010 hPa | 0 mm | - | 346 W/m² | - |
| 1778026559 | 18.33° C | 41% | 1010.1 hPa | 0 mm | - | 351 W/m² | - |
| 1778026257 | 18.89° C | 42% | 1009.8 hPa | 0 mm | - | 374 W/m² | - |
| 1778025954 | 18.33° C | 44% | 1009.8 hPa | 0 mm | - | 389 W/m² | - |
| 1778025651 | 18.33° C | 42% | 1010 hPa | 0 mm | - | 372 W/m² | - |
| 1778025349 | 17.78° C | 44% | 1010.2 hPa | 0 mm | - | 429 W/m² | - |
| 1778025046 | 17.78° C | 45% | 1010.2 hPa | 0 mm | - | 387 W/m² | - |
| 1778024743 | 18.33° C | 45% | 1010 hPa | 0 mm | - | 417 W/m² | - |
| 1778024440 | 17.22° C | 46% | 1010.2 hPa | 0 mm | - | 256 W/m² | - |
| 1778024137 | 17.78° C | 44% | 1010 hPa | 0 mm | - | 440 W/m² | - |
| 1778023835 | 18.33° C | 46% | 1010.2 hPa | 0 mm | - | 443 W/m² | - |
| 1778023532 | 17.22° C | 46% | 1010.3 hPa | 0 mm | - | 439 W/m² | - |
| 1778023230 | 17.78° C | 46% | 1010.1 hPa | 0 mm | - | 498 W/m² | - |
| 1778022926 | 17.22° C | 47% | 1010.5 hPa | 0 mm | - | 505 W/m² | - |
| 1778022625 | 16.67° C | 47% | 1010.3 hPa | 0 mm | - | 361 W/m² | - |
| 1778022322 | 17.22° C | 48% | 1010.5 hPa | 0 mm | - | 571 W/m² | - |
| 1778022018 | 17.22° C | 48% | 1010.6 hPa | 0 mm | - | 355 W/m² | - |
| 1778021715 | 17.78° C | 46% | 1010.5 hPa | 0 mm | - | 476 W/m² | - |
| 1778021411 | 18.33° C | 45% | 1010.8 hPa | 0 mm | - | 522 W/m² | - |
| 1778021109 | 17.78° C | 45% | 1010.5 hPa | 0 mm | - | 520 W/m² | - |
| 1778020806 | 16.11° C | 48% | 1010.5 hPa | 0 mm | - | 459 W/m² | - |
| 1778020503 | 16.11° C | 49% | 1010.6 hPa | 0 mm | - | 349 W/m² | - |
| 1778020199 | 16.67° C | 49% | 1010.5 hPa | 0 mm | - | 604 W/m² | - |
| 1778019895 | 16.67° C | 48% | 1010.8 hPa | 0 mm | - | 597 W/m² | - |
* Rain latest hour (hover to see other rain measurements)
** Current wind speed in m/s (hover to see current wind gust speed)